Back to catalog

STARLINK-11453

AliveCommunicationsVLEO
NORAD 62411·PAYLOAD·🇺🇸 United States

Launched Dec 23, 2024 from Cape Canaveral Space Force Station

Loading…

Next Passes (next 24 hours)

TLE

FreshSource: CelesTrak SupGP

Epoch: Sep 14, 2026, 22:52 UTC

1 62411C 24249C   26257.95326389  .00012628  00000+0  98105-4 0  2574
2 62411  43.0007 106.7758 0001724 266.1189 236.4121 15.70825896    12

Track STARLINK-11453 in real time with AllMySat

Download on the App Store